Regional Weather Roundup
Issued by NWS

Home | Current Version | Previous Version | Text Only | Print | Product List | Glossary Off
Versions: 1 2 3 4 5 6 7 8 9 10 11 12 13 14 15 16 17 18 19 20 21 22 23 24 25 26 27 28 29 30 31 32 33 34 35 36 37 38 39 40 41 42 43 44 45 46 47 48 49 50

000
ASUS43 KTOP 011208
RWRKS

WEATHER ROUNDUP FOR KANSAS
NATIONAL WEATHER SERVICE GOODLAND KS
700 AM CDT TUE SEP 01 2015

NOTE:  "FAIR" INDICATES FEW OR NO CLOUDS BELOW 12,000 FEET WITH NO
SIGNIFICANT WEATHER AND/OR OBSTRUCTIONS TO VISIBILITY.

KSZ001>006-013>018-027>032-041>047-011300-
NORTHWEST KANSAS

CITY           SKY/WX    TMP DP  RH WIND       PRES   REMARKS
GOODLAND       CLEAR     60  58  92 W8        30.00F
6HR MIN TEMP:  60; 6HR MAX TEMP:  66; 6HR PCP:  0.04;

HAYS           CLOUDY    73  57  56 S13G18    29.95S
HILL CITY      CLOUDY    72  58  61 S8        29.95R
6HR MIN TEMP:  71; 6HR MAX TEMP:  78;

RUSSELL        MOCLDY    75  61  61 S15       29.94S
6HR MIN TEMP:  74; 6HR MAX TEMP:  76;

$$

KSZ061>065-074>080-084>089-011300-
SOUTHWEST KANSAS

CITY           SKY/WX    TMP DP  RH WIND       PRES   REMARKS
DODGE CITY     PTCLDY    68  59  73 S18G26    29.98S
6HR MIN TEMP:  68; 6HR MAX TEMP:  73;

ELKHART          N/A     66  56  70 W5          N/A
GARDEN CITY    PTCLDY    63  56  78 S10       29.97R
6HR MIN TEMP:  62; 6HR MAX TEMP:  71;

GREAT BEND     MOCLDY    73  59  60 S14       29.97R
LIBERAL        CLEAR     63  52  67 SW3       30.01S
PRATT          PTCLDY    70  59  68 MISG      30.01R
$$

KSZ066>073-081>083-090>101-011300-
SOUTHEAST KANSAS

CITY           SKY/WX    TMP DP  RH WIND       PRES   REMARKS
CHANUTE        CLEAR     69  66  90 S5        30.05R
6HR MIN TEMP:  69; 6HR MAX TEMP:  74;

COFFEYVILLE    CLEAR     68  66  93 S3        30.04R
6HR MIN TEMP:  68; 6HR MAX TEMP:  75;

HUTCHINSON     CLEAR     69  62  78 S7        30.01R
6HR MIN TEMP:  67; 6HR MAX TEMP:  76;

MEDICINE LODGE   N/A     70  62  76 SE7       30.00R
NEWTON         CLEAR     72  59  64 S10       30.04R
PARSONS        CLEAR     70  67  90 S3        30.06R
6HR MIN TEMP:  70; 6HR MAX TEMP:  76;

WICHITA INTL   PTCLDY    69  63  81 S8        30.01S
6HR MIN TEMP:  68; 6HR MAX TEMP:  76;

WICHITA JABRA  CLEAR     72  62  71 S12       30.02R
6HR MIN TEMP:  70; 6HR MAX TEMP:  74;

WICHITA MCCONL CLEAR     71  61  72 S13       30.02R
WINFIELD       CLEAR     71  63  75 S6        30.04R
6HR MIN TEMP:  70; 6HR MAX TEMP:  77;

$$

KSZ007>012-019>026-033>040-048>060-102>105-011300-
NORTHEAST KANSAS

CITY           SKY/WX    TMP DP  RH WIND       PRES   REMARKS
CONCORDIA      CLEAR     72  61  68 S14       29.95R
6HR MIN TEMP:  72; 6HR MAX TEMP:  76;

EMPORIA        PTCLDY    69  66  90 S9        30.01S
6HR MIN TEMP:  68; 6HR MAX TEMP:  74;

LAWRENCE       CLEAR     70  68  93 E6        30.02R
6HR MIN TEMP:  70; 6HR MAX TEMP:  76;

MANHATTAN      CLEAR     69  65  86 SW3       29.98R
6HR MIN TEMP:  68; 6HR MAX TEMP:  78;

MARYSVILLE     PTCLDY   N/A N/A N/A S6        29.97S
OLATHE IND     MOCLDY    71  68  90 S7        30.04R
6HR MIN TEMP:  71; 6HR MAX TEMP:  74;

OLATHE EXE     MOCLDY    70  67  90 S7        30.04R
6HR MIN TEMP:  70; 6HR MAX TEMP:  74;

SALINA         CLEAR     69  62  78 S9        29.97S
6HR MIN TEMP:  68; 6HR MAX TEMP:  78;

TOPEKA BILLARD CLEAR     71  68  90 CALM      30.01R
6HR MIN TEMP:  71; 6HR MAX TEMP:  77;

TOPEKA FORBES  CLEAR     72  68  87 S9        30.01R
6HR MIN TEMP:  72; 6HR MAX TEMP:  77;

$$


USA.gov is the U.S. government's official web portal to all federal, state and local government web resources and services.